Regional Weather Roundup
Issued by NWS

Home | Current Version | Previous Version | Text Only | Print | Product List | Glossary On
Versions: 1 2 3 4 5 6 7 8 9 10 11 12 13 14 15 16 17 18 19 20 21 22 23 24 25 26 27 28 29 30 31 32 33 34 35 36 37 38 39 40 41 42 43 44 45 46 47 48 49 50
000
ASUS44 KOUN 310210
RWROK

WEATHER ROUNDUP FOR OKLAHOMA
NATIONAL WEATHER SERVICE NORMAN OK
900 PM CDT MON MAY 30 2016

NOTE: "FAIR" INDICATES FEW OR NO CLOUDS BELOW 12,000 FEET WITH NO
      SIGNIFICANT WEATHER AND/OR OBSTRUCTIONS TO VISIBILITY.

OKZ001>007-009>012-014-015-017-310300-
NORTHWEST OKLAHOMA AND THE PANHANDLE

CITY           SKY/WX    TMP DP  RH WIND       PRES   REMARKS
GAGE           CLEAR     71  60  68 SE9       29.87F
GUYMON         MOCLDY    74  60  61 SE13      29.84F
ENID/WOODRING  PTCLDY    73  66  78 E12       29.89
$$

OKZ016-021>023-033>039-044-045-310300-
SOUTHWEST OKLAHOMA

CITY           SKY/WX    TMP DP  RH WIND       PRES   REMARKS
LAWTON/REGL    CLEAR     77  65  66 SE7       29.88R
LAWTON/FT SILL HAZE      75  66  73 SE7       29.88R VSB 1
FREDERICK      CLEAR     77  66  68 S8        29.86R
CLINTON        CLEAR     77  58  51 SE9       29.90S
HOBART         CLEAR     74  62  66 SE8       29.89S
ALTUS AFB      CLEAR     74  64  69 S7        29.88R
$$

OKZ018>020-024>031-310300-
CENTRAL OKLAHOMA

CITY           SKY/WX    TMP DP  RH WIND       PRES   REMARKS
OKLAHOMA CITY  PTCLDY    74  66  76 SE9       29.90R
OKC/WILEY POST CLEAR     76  64  66 SE12      29.90R
OKC/TINKER AFB CLEAR     71  66  86 E6        29.90R
STILLWATER     CLEAR     72  65  78 SE8       29.91S
GUTHRIE        CLEAR     73  66  78 MISG      29.90S
$$

OKZ008-013-054>072-310300-
NORTHEAST OKLAHOMA

CITY           SKY/WX    TMP DP  RH WIND       PRES   REMARKS
TULSA          PTCLDY    69  66  90 E7        29.93S
TULSA/JONES    CLEAR     72  64  76 E7        29.93S
PONCA CITY     CLEAR     71  63  75 SE10      29.91F
BARTLESVILLE   PTCLDY    69  61  75 E5        29.95F
MUSKOGEE       CLEAR     68  64  87 CALM      29.94F
$$

OKZ032-040>043-046>053-073>077-310300-
SOUTH CENTRAL/SOUTHEAST OKLAHOMA

CITY           SKY/WX    TMP DP  RH WIND       PRES   REMARKS
ARDMORE/DWNTWN CLEAR     72  64  78 CALM      29.90S
MCALESTER      CLEAR     72  67  84 E5        29.93R
$$




USA.gov is the U.S. government's official web portal to all federal, state and local government web resources and services.